Regional Weather Roundup
Issued by NWS

Home | Current Version | Previous Version | Text Only | Print | Product List | Glossary Off
Versions: 1 2 3 4 5 6 7 8 9 10 11 12 13 14 15 16 17 18 19 20 21 22 23 24 25 26 27 28 29 30 31 32 33 34 35 36 37 38 39 40 41 42 43 44 45 46 47 48 49

000
ASUS45 KBOU 301907
RWRCO

WEATHER ROUNDUP FOR COLORADO
NATIONAL WEATHER SERVICE DENVER/BOULDER CO
100 PM MDT TUE SEP 30 2014

NOTE: "FAIR" INDICATES FEW OR NO CLOUDS BELOW 12000 FEET WITH NO
SIGNIFICANT WEATHER AND/OR OBSTRUCTIONS TO VISIBILITY.

COZ001>005-013-030-031-302000-
...NORTHWEST COLORADO...

CITY           SKY/WX    TMP DP  RH WIND       PRES   REMARKS
CRAIG          CLOUDY    55  37  50 W18G28    29.97F
HAYDEN         CLOUDY    52  36  54 W17G26    29.97S
MEEKER         CLOUDY    54  42  64 S7        29.98F
MOUNT WERNER   NOT AVBL
STEAMBOAT SPGS CLOUDY    45  40  82 W3        29.99R
WALDEN         PTSUNNY   45  32  61 SW15G22   29.98F
$$

COZ006>008-011-302000-
...WEST CENTRAL VALLEYS...

CITY           SKY/WX    TMP DP  RH WIND       PRES   REMARKS
GRAND JUNCTION MOSUNNY   59  43  55 NW3       29.98F
MONTROSE       CLOUDY    57  42  57 CALM      30.03F
EAGLE          CLOUDY    48  45  87 VRB6      30.05F
RIFLE          PTSUNNY   55  42  61 CALM      29.99F
DELTA          CLOUDY    60  44  55 E3        30.00F
NUCLA          CLOUDY    59  37  44 W6        30.05F
$$

COZ017>023-064>068-302000-
...SOUTHWEST COLORADO...

CITY           SKY/WX    TMP DP  RH WIND       PRES   REMARKS
DURANGO        PTSUNNY   56  39  53 SW12      30.06F
CORTEZ         PTSUNNY   60  39  45 SW7       30.04F
PAGOSA SPRINGS CLOUDY    51  37  58 S8        30.09F
TELLURIDE      CLOUDY   N/A N/A N/A W8        30.13F
WOLF CREEK PAS CLOUDY    32  32 100 SW10G16   30.22S FOG     WCI  24
$$

COZ009-010-012-014-032>034-037-058>063-302000-
...CENTRAL COLORADO...

CITY           SKY/WX    TMP DP  RH WIND       PRES   REMARKS
ASPEN          CLOUDY    46  37  71 N3        30.05S
BUENA VISTA    PTSUNNY   56  25  30 SW20G29   30.02S
COPPER MTN     CLOUDY    34  30  86 W14G21    30.16S WCI  24
BERTHOUD PASS  CLOUDY    23  21  93 NW32G40   30.12F WCI   5
COTTONWOOD PAS CLOUDY    46  25  42 W14G22    30.09S
GUNNISON       CLOUDY    46  34  61 N6        30.09F
KREMMLING      PTSUNNY   52  36  54 SW10G16   30.02S
LEADVILLE      CLOUDY    40  26  57 NW13G20   30.10R
MONARCH PASS   FOG       30  28  93 MISG      30.23S VSB<1/4
SALIDA         PTSUNNY   55  28  35 W18G26    30.09S
SUNLIGHT       CLOUDY    36  36 100 CALM      30.15F FOG
WILKERSON PASS NOT AVBL
$$

COZ069>075-302000-
...SAN LUIS VALLEY/SANGRE DE CRISTO MOUNTAINS...

CITY           SKY/WX    TMP DP  RH WIND       PRES   REMARKS
ALAMOSA        SUNNY     57  30  35 VRB6      30.03F
LA VETA PASS   NOT AVBL
SAGUACHE       PTSUNNY   54  32  43 NW16      30.05S
$$

COZ035-036-038>040-302000-
...NORTHERN COLORADO FRONT RANGE...

CITY           SKY/WX    TMP DP  RH WIND       PRES   REMARKS
DENVER INTL AP PTSUNNY   65  33  30 NW8       29.85S
DMNS CITY PARK   N/A     65  31  28 NW18G25   29.85S
AURORA         PTSUNNY   66  32  28 W18       29.87S
FRONT RANGE AP MOSUNNY   68  37  32 NW9       29.86
ERIE MUNI ARPT PTSUNNY   66  30  26 CALM      29.84F
BOULDER MUN AP PTSUNNY   63  32  31 S8        29.84F
CENTENNIAL     PTSUNNY   64  30  27 NW20      29.88S
BROOMFIELD     NOT AVBL
FORT COLLINS   MOSUNNY   63  34  34 W17G25    29.84F
LONGMONT       MOSUNNY   67  31  26 W14G24    29.85F
$$

COZ041-046-047-076>085-087-088-302000-
...PIKES PEAK/PALMER DIVIDE AND SOUTHERN FOOTHILLS...

CITY           SKY/WX    TMP DP  RH WIND       PRES   REMARKS
COLO. SPRINGS  MOSUNNY   65  27  23 VRB5      29.89F
A. F. ACADEMY  PTSUNNY   64  25  23 W13G28    29.90F
ELLICOTT       NOT AVBL
FALCON         MOSUNNY   64  26  24 SW7       29.93F
FORT CARSON    MOSUNNY   66  31  27 NE8       29.87F
LIMON          MOSUNNY   67  32  27 NW13      29.86F
MONUMENT HILL  MOSUNNY   61  30  31 W16G25    29.92F
TRINIDAD       SUNNY     69  28  21 E9        29.87F
$$

COZ042>045-048>051-090-091-302000-
...NORTHEAST COLORADO...

CITY           SKY/WX    TMP DP  RH WIND       PRES   REMARKS
GREELEY ARPT   MOSUNNY   64  36  34 CALM      29.84S
AKRON          SUNNY     67  36  31 CALM      29.83F
BURLINGTON     SUNNY     68  41  37 VRB7      29.83F
WRAY           SUNNY     76  36  22 S10       29.79F
STERLING       SUNNY     73  37  27 W7        29.78F
HOLYOKE        SUNNY     73  37  27 W9        29.79F
FORT MORGAN    SUNNY     70  33  25 W9        29.82F
$$

COZ086-089-092>099-302000-
...SOUTHEAST COLORADO...

CITY           SKY/WX    TMP DP  RH WIND       PRES   REMARKS
PUEBLO         SUNNY     73  30  20 W16G24    29.82F
LA JUNTA       SUNNY     74  33  22 W10G21    29.81F
LAMAR          SUNNY     73  39  29 NW9       29.80F
SPRINGFIELD      N/A     72  31  22 SW7       29.83F
$$


USA.gov is the U.S. government's official web portal to all federal, state and local government web resources and services.